Akron, OH

8:37 AM EST on December 16, 2017 (GMT -0500)
Akron Fulton International

Weather History for KAKR - December, 2012

Change the Weather History Date:

Friday, December 7, 2012

  Actual Average (KCAK) Record (KCAK)
Temperature  
Mean Temperature 42 °F -  
Max Temperature 46 °F 39 °F 66 °F (1998)
Min Temperature 39 °F 27 °F 3 °F (1958)
Degree Days  
Heating Degree Days 22    
Moisture  
Dew Point 42 °F    
Average Humidity 93    
Maximum Humidity 100    
Minimum Humidity 65    
Precipitation  
Precipitation 0.59 in - - ()
Sea Level Pressure  
Sea Level Pressure 29.94 in    
Wind  
Wind Speed 3 mph (SSW)    
Max Wind Speed 8 mph    
Max Gust Speed -    
Visibility 4 miles    
Events Fog , Rain    
Averages and records for this station are not official NWS values.
T = Trace of Precipitation, MM = Missing Value Source: NWS Daily Summary

Daily Weather History Graph

Daily Weather History Graph

Search for Another Location

Airport or City:

Trip Planner

Search our weather history database for the weather conditions in past years. The results will help you decide how hot, cold, wet, or windy it might be!

Date:

Astronomy

Dec. 07, 2012 Rise Set
Actual Time 7:37 AM EST 4:57 PM EST
Civil Twilight 7:06 AM EST 5:28 PM EST
Nautical Twilight 6:32 AM EST 6:02 PM EST
Astronomical Twilight 5:59 AM EST 6:35 PM EST
Moon 12:52 AM EST (12/7) 12:56 PM EST (12/7)
Length of Visible Light 10h 21m
Length of Day
9h 19m
Last Quarter, 39% of the Moon is Illuminated
Dec 7
Last Quarter
Dec 13
New
Dec 20
First Quarter
Dec 28
Full
Jan 4
Last Quarter

Hourly Weather History & Observations

Time (EST) Temp. Windchill Dew Point Humidity Pressure Visibility Wind Dir Wind Speed Gust Speed Precip Events Conditions
12:54 AM 42.1 °F 37.1 °F 30.9 °F 65% 29.99 in 10.0 mi South 8.1 mph - N/A   Overcast
1:54 AM 43.0 °F 38.2 °F 35.1 °F 74% 29.99 in 10.0 mi SSW 8.1 mph - N/A   Overcast
2:54 AM 39.9 °F 37.8 °F 37.0 °F 89% 30.00 in 9.0 mi South 3.5 mph - 0.05 in Rain Light Rain
3:50 AM 41.0 °F - 39.2 °F 93% 29.96 in 5.0 mi Calm Calm - 0.03 in Rain Light Rain
3:54 AM 41.0 °F - 39.0 °F 93% 29.97 in 6.0 mi Calm Calm - 0.03 in Rain Light Rain
4:04 AM 41.0 °F - 39.2 °F 93% 29.97 in 3.0 mi Calm Calm - 0.02 in Rain Rain
4:12 AM 41.0 °F - 39.2 °F 93% 29.96 in 2.5 mi Calm Calm - 0.04 in Rain Light Rain
4:43 AM 41.0 °F - 39.2 °F 93% 29.97 in 3.0 mi Calm Calm - 0.08 in Rain Light Rain
4:52 AM 41.0 °F - 39.2 °F 93% 29.97 in 2.0 mi Calm Calm - 0.10 in Rain Light Rain
4:54 AM 41.0 °F - 39.9 °F 96% 29.98 in 2.0 mi Calm Calm - 0.10 in Rain Light Rain
5:15 AM 41.0 °F - 39.2 °F 93% 29.96 in 3.0 mi Calm Calm - 0.02 in Rain Light Rain
5:28 AM 41.0 °F - 39.2 °F 93% 29.95 in 4.0 mi Calm Calm - 0.02 in Rain Light Rain
5:54 AM 41.0 °F 38.0 °F 39.9 °F 96% 29.97 in 4.0 mi South 4.6 mph - 0.03 in Rain Light Rain
6:21 AM 42.8 °F 41.1 °F 39.2 °F 87% 29.96 in 5.0 mi South 3.5 mph - 0.00 in Rain Light Rain
6:41 AM 42.8 °F 40.1 °F 41.0 °F 93% 29.97 in 2.0 mi SSW 4.6 mph - 0.02 in Rain Light Rain
6:54 AM 42.1 °F - 41.0 °F 96% 29.98 in 2.5 mi Calm Calm - 0.03 in Rain Light Rain
7:05 AM 42.8 °F - 41.0 °F 93% 29.96 in 4.0 mi Calm Calm - 0.00 in   Overcast
7:54 AM 43.0 °F - 42.1 °F 97% 29.97 in 2.5 mi Calm Calm - 0.00 in   Overcast
8:04 AM 42.8 °F 41.1 °F 42.8 °F 100% 29.96 in 2.0 mi WSW 3.5 mph - N/A   Overcast
8:12 AM 42.8 °F 41.1 °F 41.0 °F 93% 29.96 in 1.5 mi WSW 3.5 mph - N/A   Overcast
8:46 AM 42.8 °F 40.1 °F 42.8 °F 100% 29.98 in 0.5 mi WSW 4.6 mph - N/A Fog Fog
8:54 AM 43.0 °F 41.3 °F 42.1 °F 97% 30.00 in 0.5 mi Variable 3.5 mph - N/A Fog Fog
9:01 AM 42.8 °F 41.1 °F 42.8 °F 100% 29.98 in 0.2 mi SW 3.5 mph - N/A Fog Fog
9:09 AM 42.8 °F 39.3 °F 42.8 °F 100% 29.98 in 0.5 mi SW 5.8 mph - N/A Fog Fog
9:19 AM 42.8 °F 40.1 °F 42.8 °F 100% 29.97 in 2.0 mi SW 4.6 mph - N/A   Overcast
9:47 AM 44.6 °F 43.1 °F 42.8 °F 93% 29.98 in 3.0 mi West 3.5 mph - N/A   Overcast
9:54 AM 44.1 °F 41.5 °F 42.1 °F 93% 30.00 in 3.0 mi West 4.6 mph - N/A   Overcast
10:12 AM 44.6 °F - 42.8 °F 93% 29.98 in 4.0 mi Calm Calm - N/A   Overcast
10:54 AM 44.1 °F 41.5 °F 42.1 °F 93% 30.00 in 4.0 mi WSW 4.6 mph - 0.00 in Rain Light Rain
11:10 AM 44.6 °F 43.1 °F 42.8 °F 93% 29.98 in 4.0 mi SW 3.5 mph - 0.01 in Rain Light Rain
11:22 AM 44.6 °F 41.4 °F 42.8 °F 93% 29.98 in 4.0 mi SW 5.8 mph - 0.01 in   Overcast
11:33 AM 44.6 °F 42.2 °F 42.8 °F 93% 29.97 in 4.0 mi SW 4.6 mph - 0.01 in Rain Light Rain
11:54 AM 45.0 °F 41.8 °F 43.0 °F 93% 29.98 in 4.0 mi SW 5.8 mph - 0.01 in Rain Light Rain
12:35 PM 44.6 °F 41.4 °F 42.8 °F 93% 29.94 in 5.0 mi SSW 5.8 mph - 0.00 in   Overcast
12:54 PM 46.0 °F 41.9 °F 42.1 °F 86% 29.96 in 5.0 mi SSW 8.1 mph - 0.00 in   Mostly Cloudy
1:54 PM 46.0 °F 43.1 °F 43.0 °F 89% 29.94 in 5.0 mi SSW 5.8 mph - 0.00 in   Overcast
2:24 PM 46.4 °F 43.5 °F 42.8 °F 87% 29.92 in 5.0 mi South 5.8 mph - N/A   Mostly Cloudy
2:54 PM 46.9 °F - 43.0 °F 86% 29.93 in 5.0 mi SSW 4.6 mph - N/A   Overcast
3:26 PM 46.4 °F 45.2 °F 42.8 °F 87% 29.92 in 6.0 mi SSW 3.5 mph - N/A   Overcast
3:54 PM 46.9 °F - 44.1 °F 90% 29.93 in 6.0 mi South 3.5 mph - N/A   Overcast
4:54 PM 46.0 °F 43.1 °F 43.0 °F 89% 29.93 in 10.0 mi South 5.8 mph - N/A   Overcast
5:15 PM 46.4 °F 44.3 °F 42.8 °F 87% 29.92 in 10.0 mi SSW 4.6 mph - 0.00 in Rain Light Rain
5:47 PM 46.4 °F - 42.8 °F 87% 29.91 in 10.0 mi Calm Calm - 0.01 in Rain Light Rain
5:54 PM 46.0 °F - 43.0 °F 89% 29.92 in 9.0 mi Calm Calm - 0.01 in Rain Light Rain
6:54 PM 46.0 °F - 44.1 °F 93% 29.93 in 6.0 mi Calm Calm - 0.01 in Rain Light Rain
7:33 PM 44.6 °F - 44.6 °F 100% 29.92 in 2.5 mi Calm Calm - 0.03 in Rain Light Rain
7:54 PM 45.0 °F - 44.1 °F 97% 29.93 in 2.5 mi Calm Calm - 0.04 in Rain Light Rain
8:05 PM 46.4 °F - 44.6 °F 93% 29.91 in 3.0 mi Calm Calm - 0.01 in Rain Light Rain
8:29 PM 44.6 °F - 44.6 °F 100% 29.90 in 2.0 mi Calm Calm - 0.03 in Rain Light Rain
8:40 PM 46.4 °F - 44.6 °F 93% 29.90 in 3.0 mi Calm Calm - 0.04 in Rain Light Rain
8:50 PM 46.4 °F - 44.6 °F 93% 29.90 in 3.0 mi Calm Calm - 0.05 in Rain Light Rain
8:54 PM 46.0 °F - 44.1 °F 93% 29.91 in 3.0 mi Calm Calm - 0.05 in Rain Light Rain
9:06 PM 46.4 °F - 44.6 °F 93% 29.90 in 2.0 mi Calm Calm - 0.01 in Rain Light Rain
9:22 PM 44.6 °F - 44.6 °F 100% 29.90 in 1.8 mi Calm Calm - 0.04 in Rain Light Rain
9:40 PM 44.6 °F - 44.6 °F 100% 29.89 in 1.5 mi Calm Calm - 0.06 in Rain Light Rain
9:47 PM 44.6 °F - 44.6 °F 100% 29.89 in 1.5 mi Calm Calm - 0.08 in Rain Light Rain
9:54 PM 45.0 °F - 44.1 °F 97% 29.90 in 1.2 mi Calm Calm - 0.09 in Rain Light Rain
10:09 PM 46.4 °F - 44.6 °F 93% 29.88 in 1.5 mi Calm Calm - 0.02 in Rain Light Rain
10:14 PM 46.4 °F - 44.6 °F 93% 29.88 in 3.0 mi Calm Calm - 0.03 in Rain Light Rain
10:34 PM 46.4 °F - 44.6 °F 93% 29.87 in 2.5 mi Calm Calm - 0.06 in Rain Light Rain
10:45 PM 46.4 °F - 44.6 °F 93% 29.87 in 2.5 mi Calm Calm - 0.08 in Rain Light Rain
10:54 PM 46.0 °F - 45.0 °F 96% 29.88 in 3.0 mi Calm Calm - 0.10 in Rain Light Rain
11:15 PM 46.4 °F - 44.6 °F 93% 29.86 in 2.5 mi Calm Calm - 0.02 in Rain Light Rain
11:23 PM 46.4 °F - 44.6 °F 93% 29.86 in 4.0 mi Calm Calm - 0.03 in Rain Light Rain
11:54 PM 46.0 °F - 45.0 °F 96% 29.87 in 5.0 mi Calm Calm - 0.04 in Rain Light Rain